Wind_Speed
37 37 36 38 38 38 37 37 37 37 36 35 35 34 33 33 31 30 28 27 26 25 24 23 22 22 21 20 19 20 20 19 19 19 19 19 19 19 19 18 17 16 14
38 38 38 38 38 38 37 36 38 38 36 36 36 35 35 34 32 30 29 29 28 26 25 23 22 21 20 20 19 19 20 19 18 19 19 20 20 21 21 20 20 19 17
40 39 38 37 37 37 37 37 37 38 37 37 36 36 35 34 32 31 29 29 28 28 26 24 22 22 21 20 19 19 19 19 19 19 19 20 21 21 22 22 22 21 20
41 39 38 37 37 36 36 35 35 36 37 37 37 35 34 33 33 31 29 29 28 27 25 24 23 22 21 19 18 18 18 17 17 18 19 19 20 21 21 24 24 23 22
41 39 38 38 37 36 36 35 34 35 35 35 35 35 35 34 32 30 28 28 28 27 26 24 23 22 21 19 19 18 18 17 16 16 18 18 19 21 21 22 24 25 25
41 39 39 38 37 37 37 36 36 35 35 35 35 35 35 35 33 30 28 27 27 27 26 24 23 22 21 20 19 18 17 17 16 16 16 17 18 19 20 21 23 25 26
41 41 40 39 39 39 38 37 37 36 35 35 35 34 33 34 33 30 28 27 27 27 26 25 23 23 22 20 19 17 17 16 15 15 16 16 17 18 19 20 21 24 26
42 43 43 42 42 41 40 38 38 35 33 34 33 33 33 32 33 31 29 28 28 27 27 26 25 24 22 21 19 18 17 15 15 15 15 15 17 18 19 21 21 23 26
44 44 45 45 44 43 41 39 37 35 35 34 33 33 32 32 31 30 31 29 29 28 28 27 26 25 24 22 20 18 17 16 15 14 14 15 16 17 18 19 21 22 23
46 45 45 46 45 45 43 41 40 38 37 36 34 33 34 33 32 31 31 31 30 30 30 29 27 26 25 23 21 19 18 16 15 14 14 14 15 17 17 18 20 22 23
45 45 45 45 45 44 44 43 41 40 39 38 37 34 34 35 34 32 31 32 32 32 31 31 29 28 27 25 23 21 19 17 15 14 13 13 14 16 17 17 18 20 22
44 43 43 43 42 43 43 43 42 41 40 39 39 38 37 35 34 34 34 33 33 33 33 33 31 30 29 27 25 22 20 18 16 14 13 13 13 14 15 16 18 19 21
41 41 40 41 41 40 41 41 42 41 41 41 41 41 39 37 37 37 37 35 35 35 35 34 33 32 31 29 27 25 22 19 17 15 14 13 12 13 14 15 16 18 20
39 39 39 40 40 41 41 41 42 42 42 42 43 42 40 39 39 38 37 36 35 36 36 36 36 34 33 31 29 26 24 21 18 16 14 12 12 12 13 14 15 17 19
40 41 42 42 42 43 43 43 43 44 45 44 44 45 44 43 42 40 39 38 37 36 38 38 38 37 35 32 31 29 26 23 21 18 15 13 12 12 12 13 14 16 17
43 44 45 45 45 46 46 47 46 46 47 48 48 48 47 46 44 43 42 40 40 40 38 39 39 39 37 35 33 31 29 26 23 20 17 15 14 13 13 13 14 15 17
44 45 47 48 49 49 49 49 49 49 49 50 50 51 51 50 48 47 45 43 42 44 42 40 40 39 38 37 36 34 32 29 26 22 19 17 15 14 14 14 14 15 16
46 47 48 49 50 51 51 52 52 52 52 52 52 53 54 54 53 51 49 47 46 44 43 42 41 39 39 39 38 37 34 31 29 25 22 19 17 16 15 14 14 15 16
47 48 49 49 50 51 52 53 54 54 54 54 54 55 57 57 57 56 54 51 49 47 45 45 43 41 41 40 39 39 37 34 31 28 25 21 19 17 16 15 15 15 15
49 49 48 48 49 49 50 51 53 54 54 54 54 55 58 59 60 59 58 56 53 51 48 47 46 44 42 42 40 40 39 37 34 31 27 24 21 18 17 16 15 15 15
47 47 47 47 47 47 47 48 49 50 51 53 53 54 56 60 61 61 60 59 58 55 52 49 49 47 44 43 41 41 40 38 36 33 29 26 23 20 18 17 15 15 15
46 46 46 45 44 44 45 46 46 47 48 50 52 53 54 57 60 61 62 61 61 59 57 53 50 49 46 44 43 42 41 40 38 35 31 28 25 22 20 18 17 16 16
45 44 43 42 41 41 41 42 43 44 45 46 49 51 54 54 57 59 61 61 61 61 59 56 53 50 48 46 45 43 42 41 40 37 33 30 27 24 22 20 18 17 16
43 41 40 39 38 37 38 38 39 40 41 42 45 49 51 51 53 56 58 59 60 60 60 59 56 52 49 47 46 45 43 42 41 39 36 32 29 26 23 21 20 19 17
40 38 36 35 34 33 33 33 34 35 37 39 42 45 47 47 49 51 53 55 56 58 59 59 59 58 54 48 46 45 44 42 40 39 37 34 31 29 25 23 21 19 18
37 35 33 32 31 30 29 28 28 30 32 35 39 43 45 45 45 47 49 51 53 54 55 56 57 58 55 51 47 44 43 43 41 39 37 35 33 30 27 25 22 21 19
Wind_Direction
295 293 293 291 288 287 282 277 277 274 272 270 267 264 261 259 256 256 256 252 250 252 253 252 253 254 254 253 254 252 253 253 249 247 247 246 243 240 238 236 233 230 229
294 293 293 291 287 286 282 279 277 274 271 272 269 265 262 258 253 253 253 250 249 248 247 248 248 249 249 250 252 252 252 251 251 247 245 245 244 241 238 237 234 232 231
292 293 292 292 289 287 285 283 279 276 272 271 269 267 262 257 253 251 253 249 245 245 245 244 245 246 247 249 251 250 249 250 250 246 243 245 244 242 239 237 236 234 232
291 291 289 289 288 286 287 284 280 276 274 272 268 265 263 258 253 251 251 248 245 243 243 243 243 245 247 247 246 247 246 247 249 247 243 243 242 243 243 239 237 235 234
289 288 287 286 286 285 286 284 280 277 276 273 268 264 261 259 253 251 248 247 245 241 240 241 241 243 244 244 243 245 244 245 248 248 244 244 244 244 245 242 238 236 234
286 286 285 285 284 284 286 282 276 274 275 275 269 264 260 257 253 250 247 245 240 238 237 236 236 238 239 240 241 242 242 244 246 247 246 245 245 245 245 244 241 238 235
285 284 283 283 281 282 284 282 278 275 273 272 269 262 258 254 250 246 244 241 238 236 234 233 232 233 235 236 235 237 240 241 243 245 245 246 247 244 244 245 243 239 236
284 282 281 280 279 279 279 278 278 273 271 268 266 262 258 253 247 245 240 238 237 235 233 232 230 229 230 231 231 233 237 239 241 244 247 248 249 249 248 247 246 244 239
283 282 281 280 279 278 277 276 275 269 267 267 264 258 254 246 246 244 237 236 236 234 231 230 228 227 226 227 228 230 233 237 240 243 247 249 250 252 251 250 247 245 242
284 282 280 279 278 277 275 274 272 270 266 265 261 255 251 246 246 241 237 234 235 234 230 228 225 224 223 223 223 225 229 234 238 242 247 250 251 253 254 253 249 245 243
285 284 282 279 278 276 274 272 270 268 265 262 256 252 251 247 243 238 236 235 234 232 229 226 223 222 221 221 221 222 225 230 235 241 247 251 253 254 255 256 251 246 243
287 285 283 281 277 275 272 270 268 265 263 260 255 251 249 247 242 236 232 234 233 230 227 225 223 221 220 219 220 220 222 227 233 239 246 252 255 255 256 258 255 251 247
291 288 286 283 279 275 271 269 267 264 261 258 254 251 247 245 244 239 235 232 229 227 226 225 222 221 219 218 219 219 220 225 231 237 244 251 256 257 258 258 257 254 251
290 289 288 286 283 278 273 268 266 263 260 257 251 248 244 242 242 239 234 231 228 226 225 224 222 221 219 218 218 219 221 224 229 233 240 248 255 258 261 261 259 256 254
289 288 288 285 283 279 275 270 266 262 259 255 251 247 244 241 239 237 233 229 226 225 224 223 222 221 220 217 217 219 221 223 229 232 237 244 252 259 263 266 265 262 258
289 287 286 285 283 280 276 272 267 262 258 255 251 247 244 242 239 236 233 231 228 226 223 223 222 221 220 218 217 218 220 223 228 232 236 242 250 259 264 270 269 266 262
289 287 285 283 282 279 276 272 268 262 257 254 251 247 243 241 240 237 234 232 230 227 224 225 224 222 221 219 218 219 221 223 227 231 235 240 247 257 265 270 271 269 266
291 289 286 283 280 277 274 270 267 262 258 253 250 247 243 240 238 237 233 231 230 227 225 224 224 222 222 221 219 219 221 223 226 230 233 238 245 255 263 269 272 271 269
294 292 289 286 282 277 273 269 265 261 257 253 249 246 242 240 237 236 233 231 229 227 225 224 223 221 221 221 220 220 221 222 225 229 232 235 242 251 259 266 271 272 270
297 295 291 288 284 279 274 269 264 260 255 251 247 243 240 239 237 235 234 231 229 227 226 224 224 222 221 221 221 221 221 222 225 228 231 234 238 245 253 261 267 269 269
300 297 294 290 286 280 275 269 264 259 253 248 244 241 239 237 235 235 233 231 230 228 226 225 225 223 222 222 222 223 223 223 224 226 230 232 235 240 248 255 263 267 268
303 300 297 293 288 282 276 270 264 258 252 247 242 238 237 235 234 233 232 230 230 229 227 226 224 223 223 223 223 224 225 224 224 225 227 230 233 237 243 249 256 263 266
307 304 301 296 291 284 278 271 264 256 250 245 240 237 235 234 233 232 231 230 229 228 228 227 226 225 225 224 224 224 225 225 223 224 226 228 231 235 239 245 251 258 262
311 307 303 299 294 289 281 272 263 255 248 242 238 234 233 232 232 231 230 229 228 227 227 227 228 226 225 226 226 225 226 226 225 223 224 227 230 233 237 242 248 253 257
314 311 307 303 299 293 285 276 265 254 246 240 235 232 230 229 230 229 229 229 228 227 226 226 227 227 226 226 226 227 227 227 225 224 224 226 228 232 235 240 245 249 253
317 314 311 307 303 297 289 279 266 252 242 236 232 229 227 226 226 226 226 227 227 226 225 225 226 227 225 224 224 226 226 225 225 223 224 225 227 230 233 237 242 246 249
Height
5861 5860 5857 5855 5854 5853 5851 5852 5852 5853 5854 5855 5856 5858 5860 5861 5863 5863 5864 5865 5866 5869 5872 5874 5876 5878 5880 5881 5883 5884 5886 5888 5890 5892 5894 5895 5897 5899 5901 5903 5905 5907 5909
5854 5852 5850 5848 5846 5844 5843 5843 5844 5843 5844 5846 5848 5850 5851 5853 5855 5856 5857 5860 5860 5864 5867 5869 5871 5873 5875 5877 5878 5880 5882 5884 5885 5887 5889 5891 5893 5895 5898 5900 5902 5905 5907
5846 5844 5843 5841 5839 5837 5836 5835 5835 5835 5837 5838 5839 5841 5843 5845 5847 5848 5849 5852 5855 5858 5861 5864 5866 5868 5870 5872 5874 5876 5877 5879 5881 5883 5885 5887 5889 5891 5894 5896 5899 5901 5904
5838 5836 5835 5834 5832 5831 5829 5828 5828 5828 5828 5829 5830 5832 5835 5837 5840 5842 5844 5847 5850 5853 5855 5858 5861 5863 5866 5868 5869 5871 5873 5875 5876 5878 5880 5882 5885 5887 5889 5892 5895 5898 5900
5829 5828 5827 5825 5824 5823 5822 5820 5820 5819 5820 5820 5822 5824 5826 5829 5832 5835 5838 5840 5843 5847 5850 5852 5855 5858 5861 5863 5865 5867 5869 5871 5872 5874 5876 5878 5880 5882 5885 5887 5890 5893 5896
5820 5819 5818 5817 5816 5815 5814 5812 5812 5811 5812 5813 5813 5815 5818 5820 5823 5827 5831 5834 5837 5840 5844 5846 5849 5852 5856 5858 5860 5862 5864 5866 5868 5870 5871 5873 5875 5877 5880 5882 5885 5888 5890
5811 5810 5809 5808 5807 5807 5806 5805 5804 5803 5804 5805 5806 5808 5810 5813 5815 5819 5823 5827 5831 5834 5837 5840 5843 5847 5850 5853 5856 5858 5860 5862 5864 5866 5867 5869 5871 5873 5875 5877 5880 5882 5885
5802 5800 5799 5799 5798 5797 5797 5797 5796 5795 5796 5797 5799 5800 5802 5805 5808 5812 5816 5820 5824 5827 5831 5835 5839 5842 5845 5848 5851 5853 5856 5858 5860 5862 5863 5865 5866 5868 5870 5872 5874 5876 5879
5791 5790 5788 5788 5787 5787 5787 5787 5787 5787 5788 5790 5791 5793 5795 5798 5801 5805 5808 5813 5817 5821 5825 5829 5833 5836 5840 5843 5846 5849 5851 5853 5855 5857 5859 5860 5862 5864 5865 5867 5869 5871 5873
5779 5778 5777 5776 5776 5776 5776 5777 5778 5778 5780 5782 5783 5784 5788 5791 5794 5797 5800 5805 5809 5814 5818 5822 5827 5831 5834 5838 5842 5844 5847 5849 5851 5853 5855 5856 5857 5859 5860 5861 5863 5865 5868
5766 5765 5764 5764 5764 5764 5764 5765 5767 5768 5770 5772 5774 5776 5779 5782 5785 5790 5793 5797 5802 5807 5811 5816 5820 5825 5829 5833 5836 5839 5842 5845 5847 5849 5850 5851 5852 5854 5855 5856 5858 5860 5862
5753 5752 5751 5751 5751 5752 5752 5753 5755 5757 5759 5762 5765 5767 5770 5773 5777 5781 5785 5790 5794 5799 5804 5809 5813 5818 5823 5827 5831 5834 5837 5840 5842 5844 5846 5847 5848 5849 5850 5852 5853 5855 5856
5741 5740 5739 5738 5738 5739 5740 5741 5743 5745 5748 5751 5753 5757 5760 5764 5768 5772 5777 5781 5786 5791 5796 5802 5807 5811 5816 5821 5825 5828 5832 5835 5837 5839 5841 5842 5843 5845 5846 5847 5848 5850 5851
5731 5729 5727 5726 5726 5726 5727 5729 5731 5733 5736 5738 5741 5746 5750 5754 5758 5762 5767 5772 5777 5783 5789 5794 5799 5804 5809 5814 5818 5823 5826 5829 5832 5835 5836 5838 5839 5840 5842 5843 5844 5845 5846
5720 5718 5716 5715 5714 5713 5713 5715 5718 5720 5722 5726 5729 5734 5739 5744 5748 5753 5757 5762 5768 5774 5780 5785 5791 5796 5801 5807 5812 5816 5820 5824 5827 5830 5831 5833 5835 5836 5837 5838 5839 5840 5841
5708 5706 5703 5701 5700 5699 5699 5700 5703 5706 5708 5712 5716 5721 5726 5732 5737 5742 5747 5752 5758 5764 5770 5776 5782 5788 5793 5799 5804 5809 5813 5818 5821 5824 5826 5828 5830 5832 5833 5834 5834 5835 5836
5696 5693 5690 5687 5685 5684 5683 5684 5686 5689 5693 5696 5701 5706 5712 5718 5724 5730 5736 5742 5748 5754 5760 5767 5773 5778 5784 5790 5796 5801 5807 5811 5815 5819 5821 5823 5825 5827 5828 5829 5830 5830 5831
5682 5678 5675 5672 5670 5668 5667 5667 5668 5671 5675 5679 5684 5690 5696 5703 5710 5717 5724 5731 5737 5743 5750 5757 5763 5769 5775 5782 5788 5794 5799 5804 5808 5812 5815 5818 5820 5822 5823 5824 5825 5825 5826
5666 5662 5658 5654 5652 5650 5649 5648 5649 5652 5656 5661 5666 5673 5679 5686 5694 5702 5710 5718 5725 5732 5740 5747 5753 5759 5766 5772 5779 5785 5791 5796 5801 5805 5809 5812 5814 5817 5818 5819 5820 5821 5821
5650 5645 5640 5636 5633 5631 5629 5629 5630 5632 5636 5641 5647 5654 5661 5669 5677 5686 5695 5704 5712 5720 5728 5736 5742 5749 5756 5763 5770 5776 5783 5789 5794 5798 5802 5805 5809 5811 5813 5814 5815 5816 5817
5634 5628 5623 5619 5615 5612 5611 5610 5611 5613 5617 5622 5629 5636 5643 5651 5660 5669 5679 5689 5698 5707 5716 5724 5731 5739 5746 5754 5761 5767 5774 5780 5786 5791 5795 5799 5803 5806 5808 5809 5810 5811 5812
5618 5612 5606 5601 5597 5594 5592 5592 5592 5594 5599 5604 5611 5618 5625 5634 5643 5653 5663 5673 5684 5693 5703 5712 5720 5728 5737 5744 5751 5758 5765 5772 5778 5783 5788 5793 5797 5800 5802 5804 5805 5806 5807
5604 5597 5591 5585 5581 5577 5575 5574 5574 5577 5582 5588 5594 5602 5609 5618 5627 5637 5647 5657 5668 5679 5689 5700 5709 5718 5726 5734 5742 5749 5755 5762 5769 5775 5781 5786 5790 5793 5796 5798 5800 5801 5802
5590 5583 5577 5571 5566 5562 5559 5558 5558 5561 5566 5573 5579 5586 5594 5603 5612 5622 5632 5642 5653 5665 5677 5687 5698 5707 5715 5723 5731 5738 5745 5753 5760 5767 5773 5779 5783 5786 5790 5792 5795 5796 5798
5578 5571 5564 5558 5553 5549 5545 5544 5544 5547 5552 5559 5565 5572 5580 5590 5599 5609 5619 5630 5641 5651 5661 5673 5684 5695 5704 5713 5721 5729 5737 5744 5751 5758 5765 5771 5776 5779 5783 5786 5789 5791 5792
5568 5561 5554 5548 5542 5538 5534 5532 5532 5535 5540 5546 5553 5560 5569 5577 5586 5595 5606 5616 5627 5637 5649 5660 5672 5683 5693 5702 5711 5720 5728 5735 5741 5749 5757 5763 5768 5773 5777 5780 5783 5785 5787